Home > Weather > Naples > Past weeks

Flag for U.S.A. Weather for the Past 2 Weeks in Naples, Florida, U.S.A.

Now
57 °F

Clear.


Feels Like: 55 °F
Forecast: 48 / 65 °F
Wind: 10 mph from Northwest

Location: Naples Municipal

Current Time: Feb 7, 2016 at 9:53:31 PM

Latest Report: Feb 7, 2016 at 8:53 PM


Visibility: 10 mi

Pressure: 30.07 "Hg

Humidity: 58%

Dew point: 42 °F

Location of NaplesLocation

Historic Weather in Naples — Graph

°F

Naples Temperature Yesterday

Maximum temperature yesterday: 71 °F (at 11:53 AM)
Minimum temperature yesterday: 55 °F (at 1:53 AM)
Average temperature yesterday: 59 °F

High & Low Weather Summary for the Past Weeks

 TemperatureHumidityPressure
High83 °F (Feb 2, 1:53 PM)100% (Jan 28, 5:53 PM)30.28 "Hg (Jan 28, 5:53 PM)
Low44 °F (Jan 25, 4:53 AM)32% (Feb 5, 3:53 PM)29.74 "Hg (Jan 28, 3:53 PM)
Average65 °F75%30.08 "Hg
* Reported Jan 23 7:53 PM — Feb 7 7:53 PM, Naples, Weather by CustomWeather, © 2016

Note: Actual official high and low records may vary slightly from our data, if they occured in-between our weather recording intervals... More about our weather records

Advertising

Naples Weather History for the Previous 24 Hours

 ConditionsComfort  
Time TempWeatherWind HumidityBarometerVisibility
7:53 PM
Sun, Feb 7
56 °FClear.14 mph60%30.07 "Hg10 mi
6:53 PM56 °FClear.13 mph60%30.06 "Hg10 mi
5:53 PM57 °FSunny.14 mph55%30.06 "Hg10 mi
4:53 PM58 °FSunny.18 mph54%30.05 "Hg10 mi
3:53 PM58 °FSunny.15 mph50%30.05 "Hg10 mi
2:53 PM59 °FSunny.16 mph48%30.05 "Hg10 mi
1:53 PM58 °FSunny.21 mph47%30.06 "Hg10 mi
12:53 PM58 °FPassing clouds.22 mph47%30.08 "Hg10 mi
11:53 AM59 °FPassing clouds.20 mph49%30.09 "Hg10 mi
10:53 AM59 °FBroken clouds.21 mph58%30.11 "Hg10 mi
9:53 AM56 °FBroken clouds.13 mph72%30.10 "Hg10 mi
8:53 AM54 °FMostly cloudy.9 mph80%30.08 "Hg10 mi
7:53 AM54 °FOvercast.8 mph77%30.05 "Hg9 mi
6:53 AM54 °FOvercast.8 mph74%30.04 "Hg10 mi
5:53 AM54 °FMostly cloudy.7 mph72%30.01 "Hg10 mi
4:53 AM54 °FClear.7 mph72%29.98 "Hg10 mi
3:53 AM56 °FPassing clouds.8 mph70%30.00 "Hg10 mi
2:53 AM57 °FMostly cloudy.13 mph78%30.00 "Hg10 mi
1:53 AM57 °FMostly cloudy.12 mph83%30.01 "Hg10 mi
12:53 AM57 °FMostly cloudy.10 mph83%30.03 "Hg10 mi
11:53 PM
Sat, Feb 6
57 °FOvercast.14 mph87%30.04 "Hg10 mi
10:53 PM58 °FMostly cloudy.8 mph90%30.05 "Hg10 mi
10:01 PM58 °FPartly cloudy.9 mph93%30.07 "Hg10 mi
Weather by CustomWeather, © 2016

See weather overviewHow to use our weather pages